Vorticity
nan nan nan nan nan nan nan nan nan nan nan nan nan nan nan nan nan nan nan nan nan nan nan nan nan nan nan nan nan nan nan nan nan nan nan nan nan nan nan nan nan nan nan nan nan nan nan nan nan nan nan nan nan nan
nan 9 10 9 9 9 9 9 9 8 7 8 10 10 11 11 12 16 12 8 16 16 5 10 17 14 11 -0 2 12 12 9 10 9 11 13 11 15 15 19 12 14 18 16 13 10 9 14 11 8 12 11 13 nan
nan 9 9 10 9 9 9 9 9 9 8 8 9 10 11 12 13 13 12 8 13 11 15 19 20 20 19 16 1 -0 5 6 9 12 11 10 9 10 14 11 9 10 17 16 7 14 18 9 8 8 10 18 18 nan
nan 9 10 10 10 10 10 9 9 9 10 10 9 10 12 13 12 14 13 9 11 12 12 8 9 15 24 28 11 4 -1 3 10 11 12 10 8 10 11 10 13 8 9 14 5 8 9 11 16 10 8 12 11 nan
nan 10 10 10 10 10 10 11 10 9 9 10 9 10 11 12 16 20 17 15 9 6 8 7 14 22 16 20 18 13 11 9 9 10 11 9 7 9 12 10 9 13 10 11 9 14 15 14 15 13 10 9 8 nan
nan 9 10 10 9 9 10 9 10 10 9 10 10 10 12 13 18 18 19 17 13 7 6 9 16 15 22 23 12 11 10 12 11 9 10 12 10 8 11 9 5 5 9 15 17 15 11 14 12 10 10 12 13 nan
nan 10 10 10 10 10 10 9 10 10 10 11 12 13 14 17 17 9 8 5 15 15 7 10 13 18 17 7 9 11 13 11 10 9 10 9 11 13 13 9 6 6 12 11 11 11 10 11 10 11 15 13 6 nan
nan 10 10 10 9 10 10 11 9 9 10 12 13 18 22 20 13 14 17 14 7 9 10 12 12 14 14 6 11 12 11 11 10 10 11 11 9 12 10 7 9 11 12 8 10 12 9 9 8 6 19 22 16 nan
nan 10 10 10 10 10 9 10 10 11 10 12 24 29 26 16 7 10 16 17 8 9 12 10 12 10 10 12 11 13 11 10 12 10 12 11 11 12 12 8 9 12 10 8 8 9 9 12 13 19 25 20 12 nan
nan 10 9 9 12 11 9 9 11 10 16 30 30 19 10 4 13 15 12 9 11 10 10 9 9 8 9 15 16 13 8 11 13 10 11 9 12 11 18 21 14 9 9 13 9 7 15 14 20 21 16 15 13 nan
nan 10 10 10 10 11 9 9 10 22 26 17 12 11 8 11 19 13 10 12 10 10 12 14 11 7 9 13 9 11 14 14 11 14 14 11 8 13 17 15 13 12 12 15 17 15 15 19 18 10 8 10 9 nan
nan 11 10 9 9 11 10 10 13 15 12 13 12 12 13 16 12 11 13 14 10 12 12 11 15 12 10 11 9 9 11 11 11 13 14 12 9 13 12 8 8 12 13 13 19 15 8 13 15 12 10 7 7 nan
nan 11 11 10 10 11 10 12 12 10 15 19 12 11 12 11 12 15 12 10 6 8 9 12 14 15 13 11 13 12 10 9 9 14 13 12 11 8 11 10 11 15 11 8 8 8 10 9 8 12 14 13 14 nan
nan 11 10 10 11 13 15 13 9 18 21 11 10 12 13 11 9 6 8 14 11 6 11 15 13 12 11 12 9 14 13 12 12 11 13 12 10 10 10 10 10 11 11 10 10 10 9 10 10 9 10 11 12 nan
nan 11 17 22 20 14 10 8 14 16 13 11 11 15 10 9 13 8 11 10 10 15 16 13 13 14 13 13 10 10 11 13 11 13 16 14 8 9 11 10 9 10 10 9 10 10 10 9 9 9 10 10 11 nan
nan 20 25 17 10 6 7 18 21 12 11 13 11 7 10 11 9 14 12 13 7 12 17 13 14 10 12 13 14 12 9 10 14 12 10 12 10 10 10 10 10 10 11 11 10 10 9 8 10 11 8 9 10 nan
nan 21 11 3 8 14 21 19 15 11 9 11 12 10 8 9 10 11 13 12 9 11 14 15 12 7 12 16 10 8 15 15 13 9 10 11 10 9 10 11 9 9 9 9 9 10 10 8 9 11 10 11 10 nan
nan 10 2 3 15 22 22 13 10 13 12 10 9 11 13 11 10 10 10 9 11 12 12 12 9 12 12 13 15 11 9 15 18 11 12 11 11 10 10 9 9 10 9 9 8 10 10 14 14 8 11 12 13 nan
nan -0 0 11 16 18 15 13 11 11 13 14 14 11 10 12 13 11 10 11 11 11 12 14 12 10 10 10 9 10 13 11 11 16 16 15 11 9 8 10 10 10 8 7 10 13 12 12 12 13 14 13 13 nan
nan 16 17 16 13 11 12 12 11 10 10 10 11 13 13 11 11 11 13 12 12 16 14 11 9 11 12 12 11 10 8 11 12 13 12 11 11 13 10 10 9 11 11 11 10 11 10 8 11 13 13 12 9 nan
nan 18 23 19 10 10 9 12 13 11 11 10 10 14 13 12 12 11 12 13 12 10 10 10 8 8 13 14 11 16 13 10 10 14 15 13 13 12 11 11 11 10 11 12 13 11 12 13 11 13 12 10 12 nan
nan 11 12 11 12 13 10 12 8 11 15 11 14 16 14 14 14 15 14 13 12 13 12 11 12 11 9 9 12 10 12 11 11 12 12 13 13 11 12 9 13 15 16 14 10 12 13 12 12 10 11 11 12 nan
nan 14 12 11 11 11 14 13 13 12 11 13 15 14 14 13 14 13 13 15 15 15 14 13 12 12 12 11 11 11 14 14 12 9 12 11 12 12 12 10 11 12 15 14 14 13 15 13 12 11 10 11 9 nan
nan 13 15 13 11 9 14 13 12 11 13 12 11 11 12 14 15 11 12 14 11 11 11 12 12 12 14 12 10 11 13 13 14 15 11 14 13 13 14 11 9 9 12 15 16 13 11 14 14 11 10 11 11 nan
nan 14 14 11 13 12 12 13 13 11 10 11 13 12 12 14 14 12 12 13 15 12 8 8 11 11 10 11 11 13 12 12 15 14 12 12 10 11 12 14 13 7 11 16 15 12 11 11 8 14 15 10 8 nan
nan 16 10 10 13 11 11 13 11 10 11 12 12 15 15 13 11 12 15 10 8 10 11 11 12 12 11 12 12 11 9 12 13 12 16 16 12 9 12 10 9 15 18 10 8 12 14 13 11 8 13 20 12 nan
nan 14 12 11 11 10 10 11 14 14 12 12 11 13 12 13 13 14 13 12 12 14 10 9 11 11 12 12 12 13 14 13 11 10 11 16 14 14 12 12 11 10 9 10 12 23 19 7 7 12 12 14 18 nan
nan 11 12 10 11 13 13 12 13 14 14 11 11 12 11 13 13 11 13 16 10 10 15 14 12 12 15 14 10 12 12 13 14 11 13 14 15 15 10 11 12 10 8 9 8 18 20 11 9 11 12 11 10 nan
nan 11 11 12 14 12 12 13 11 10 11 12 11 11 8 5 9 15 22 20 15 8 9 11 15 16 14 13 13 13 13 11 15 18 13 12 18 12 11 12 13 12 9 4 8 15 17 16 16 13 10 13 11 nan
nan 13 14 15 15 15 13 6 2 7 11 11 10 12 11 10 12 21 20 9 6 11 15 13 13 15 15 14 18 22 16 10 11 13 13 10 8 9 18 22 14 11 10 8 8 10 17 12 11 17 18 10 14 nan
nan 13 14 15 13 13 11 12 14 12 11 13 13 13 11 16 17 11 9 12 14 13 18 21 17 10 8 14 15 16 14 19 18 12 6 10 9 9 8 14 21 15 9 10 12 13 19 14 8 12 14 10 13 nan
nan 12 10 11 11 10 18 21 17 14 16 18 13 15 18 16 11 12 11 8 7 16 16 13 13 11 16 15 12 19 9 8 17 16 10 5 10 13 10 10 12 14 14 11 17 25 22 16 9 8 9 15 15 nan
nan nan nan nan nan nan nan nan nan nan nan nan nan nan nan nan nan nan nan nan nan nan nan nan nan nan nan nan nan nan nan nan nan nan nan nan nan nan nan nan nan nan nan nan nan nan nan nan nan nan nan nan nan nan
CAPE
0 0 0 0 0 0 0 0 0 2 6 3 3 8 12 15 15 8 0 0 0 9 0 0 0 0 0 0 0 0 0 0 0 0 0 0 0 0 0 0 0 0 0 0 0 0 13 42 12 180 139 0 492 513
0 0 0 0 0 0 0 0 2 6 8 2 6 6 11 16 18 18 1 0 0 0 0 0 0 0 0 0 0 0 0 0 5 4 0 0 30 87 67 62 38 109 30 0 0 0 32 2 0 0 0 0 520 554
0 0 1 1 0 0 1 2 4 6 6 7 6 4 10 13 14 17 10 4 2 4 0 0 0 0 0 0 0 0 0 0 0 0 0 0 150 206 105 34 14 86 77 44 71 29 16 7 0 2 0 17 99 273
0 0 1 1 0 1 2 7 6 6 8 12 10 8 9 11 11 13 12 5 5 4 2 0 0 0 0 0 0 0 0 0 0 0 0 0 28 38 0 0 16 0 12 6 57 42 0 24 2 4 98 77 123 106
1 1 1 2 3 2 6 10 10 8 9 15 17 12 11 5 4 9 4 4 5 3 5 0 0 0 0 0 0 0 0 0 0 0 0 0 2 0 0 0 6 0 0 0 0 0 0 5 0 58 204 117 104 126
1 2 2 2 2 4 8 10 8 7 5 10 12 9 10 5 5 5 0 0 0 8 12 0 0 0 0 1 0 0 0 0 0 0 0 0 0 0 0 0 12 0 0 0 0 0 1 22 103 205 243 209 49 13
1 2 1 2 3 5 7 11 10 4 5 5 3 3 5 2 7 1 0 0 0 5 11 1 26 85 2 0 0 0 0 0 0 0 0 0 0 0 0 0 0 0 0 0 0 0 0 0 0 36 258 155 9 80
0 1 1 2 5 6 7 10 9 5 3 0 0 0 1 4 3 1 0 0 0 3 5 12 70 72 49 25 0 0 0 0 0 0 0 0 0 0 0 0 17 9 2 0 0 0 0 0 0 0 50 164 138 187
0 0 1 4 5 5 8 4 7 6 0 0 0 0 0 0 13 4 0 0 0 0 11 80 69 69 125 54 63 59 49 0 0 0 0 0 0 0 0 0 7 3 0 0 0 0 0 0 0 0 54 258 149 49
0 0 2 1 4 6 5 4 8 0 0 0 0 2 23 2 0 0 0 3 3 5 4 5 11 69 161 207 142 221 86 18 24 0 0 0 0 0 11 7 106 70 31 11 0 0 0 14 147 2 95 197 164 0
0 1 3 6 6 7 6 6 8 0 0 0 0 1 0 0 1 23 59 48 25 28 23 16 4 0 23 149 169 152 304 204 25 26 56 95 25 257 220 242 117 60 14 0 0 4 207 450 417 98 12 101 59 54
1 2 3 5 4 6 6 5 7 1 3 1 1 3 3 3 23 30 55 130 91 69 106 65 68 34 86 325 185 34 122 145 149 121 160 138 915 706 295 217 80 3 208 266 367 263 133 222 248 43 0 0 1 89
1 3 5 3 2 5 7 8 1 0 0 9 7 5 6 32 12 30 3 67 119 211 97 427 345 307 327 429 305 77 93 80 119 75 128 511 1042 747 590 246 146 171 262 238 152 210 188 246 105 50 126 95 105 109
1 3 2 3 2 1 2 0 0 0 0 12 11 0 7 18 22 45 28 129 45 116 147 311 428 507 452 349 349 144 137 128 54 112 188 574 670 843 571 446 189 167 186 114 114 107 81 30 35 30 20 5 3 1
2 4 1 1 0 0 0 0 0 5 26 6 3 12 18 44 58 27 14 59 31 13 190 198 218 190 159 153 177 138 125 105 85 151 527 608 688 819 610 475 259 129 38 0 0 0 0 0 0 0 4 7 46 162
3 0 0 0 0 0 0 0 1 31 25 8 3 2 19 51 29 28 21 29 3 3 93 171 31 58 58 98 106 96 89 101 123 254 685 510 505 590 863 634 318 134 6 0 0 0 0 0 0 3 1 5 4 9
4 3 0 0 0 0 0 1 34 23 18 8 7 5 13 37 32 31 23 33 8 29 95 70 11 35 67 97 67 163 122 88 111 9 19 376 430 633 563 201 174 86 18 1 0 0 0 0 15 0 0 0 0 0
8 5 0 0 0 0 11 21 34 39 28 7 6 2 28 10 10 18 33 23 24 71 81 53 55 45 48 43 43 159 93 109 147 9 67 341 342 282 541 130 142 79 3 0 0 21 12 23 3 1 0 0 0 0
6 11 0 0 1 5 20 23 39 21 16 23 28 19 16 32 45 28 5 3 23 64 69 80 66 54 40 65 125 136 138 122 109 449 509 580 646 472 454 363 214 75 25 0 12 49 175 84 52 0 0 6 4 29
0 0 0 0 6 38 28 21 56 33 10 21 10 14 41 30 26 27 17 0 14 35 59 26 7 41 22 32 44 16 83 110 171 134 134 356 415 436 362 320 269 127 189 107 175 101 250 167 37 125 10 29 53 6
0 4 0 1 27 23 34 22 32 42 32 16 6 23 16 17 16 12 19 36 32 14 14 18 14 21 92 236 213 259 116 53 261 252 294 300 415 288 229 296 343 206 14 34 49 35 9 46 96 58 17 69 183 16
48 1 33 13 48 61 17 2 4 18 5 0 0 0 1 1 8 13 9 20 10 8 14 9 1 16 45 116 186 235 317 116 77 29 15 34 295 342 306 317 152 69 28 30 39 40 56 62 44 154 129 25 15 14
2 8 37 60 46 11 0 27 6 18 19 13 25 46 58 61 88 62 36 33 38 143 134 133 159 211 264 232 223 204 280 233 108 75 91 111 163 362 290 162 143 81 32 45 41 54 45 50 12 19 19 38 24 58
0 16 40 49 13 0 16 35 36 17 8 24 21 30 41 70 82 69 32 93 193 227 262 114 139 84 137 149 117 105 273 243 167 131 103 52 69 30 221 138 69 55 35 38 28 44 57 20 9 16 31 1 9 14
38 5 9 0 9 28 12 18 19 29 28 41 33 19 61 52 9 22 52 182 366 366 92 52 18 5 6 0 8 43 332 325 200 88 65 17 78 11 16 46 40 46 49 60 96 48 120 22 11 10 28 27 38 54
1 14 0 22 20 26 32 28 35 49 43 24 13 40 66 53 18 42 66 70 41 33 29 5 1 1 0 1 1 6 199 309 288 113 102 28 13 3 12 65 34 42 89 102 117 102 59 58 51 54 52 42 15 32
1 6 23 26 23 29 23 25 24 16 16 10 17 29 38 15 11 55 117 99 67 67 1 0 0 0 6 4 1 0 0 24 66 131 211 182 37 36 5 55 37 52 194 155 72 66 79 57 93 114 59 108 52 25
10 8 10 37 43 39 14 16 16 13 13 24 20 14 11 19 43 151 149 352 25 0 0 0 0 0 4 0 0 0 0 53 16 14 70 120 157 36 1 31 85 17 133 119 36 28 33 52 53 43 101 134 16 28
9 13 20 9 18 17 11 12 8 4 3 1 5 3 2 10 3 0 1 4 1 11 5 0 0 0 0 0 0 0 0 66 107 64 91 82 95 29 41 151 124 51 22 19 73 41 17 59 64 56 160 315 57 22
0 4 4 2 4 1 0 1 5 11 9 3 3 0 0 0 0 16 0 16 93 73 46 25 8 2 13 2 15 21 0 7 20 48 84 79 36 11 58 76 68 54 31 45 53 65 98 0 4 20 66 280 321 280
7 5 3 2 2 0 0 0 0 0 0 0 0 0 0 0 18 51 112 107 61 37 76 40 19 22 27 29 39 16 0 0 16 48 46 24 28 40 135 272 116 13 5 7 17 21 47 58 19 155 223 406 236 282
2 0 0 1 0 0 0 0 0 0 7 13 4 25 38 59 38 8 62 99 62 31 11 5 19 1 34 145 74 27 1 22 50 15 59 6 0 12 204 196 222 236 342 426 329 224 267 316 95 68 189 335 478 100
0 0 0 2 1 0 1 0 22 32 87 119 79 276 266 46 86 354 86 206 275 74 12 24 60 23 21 44 56 44 11 95 153 16 0 0 4 24 3 0 0 209 142 83 41 68 41 18 319 344 269 100 17 173